Weather History for Mount Ida, AR

Change the Weather History Date:

Monday, June 9, 2014

  Actual Average (KHOT) Record (KHOT)
Temperature  
Mean Temperature 70 °F -  
Max Temperature 75 °F 88 °F 97 °F (1953)
Min Temperature 66 °F 64 °F 51 °F (1977)
Cooling Degree Days 4    
Growing Degree Days 20 (Base 50)    
Moisture  
Dew Point 67 °F    
Average Humidity 92    
Maximum Humidity 97    
Minimum Humidity 76    
Precipitation  
Precipitation 1.28 in - - ()
Sea Level Pressure  
Sea Level Pressure 29.76 in    
Wind  
Wind Speed 2 mph (SE)    
Max Wind Speed 9 mph    
Max Gust Speed -    
Visibility 7 miles    
Events Fog , Rain    
Averages and records for this station are not official NWS values.
T = Trace of Precipitation, MM = Missing Value Source: NWS Daily Summary

Daily Weather History Graph

Daily Weather History Graph

Search for Another Location

Airport:

Trip Planner

Search our weather history database for the weather conditions in past years. The results will help you decide how hot, cold, wet, or windy it might be!

Date:

Astronomy

Jun. 09, 2014 Rise Set
Actual Time 6:01 AM CDT 8:26 PM CDT
Civil Twilight 5:31 AM CDT 8:55 PM CDT
Nautical Twilight 4:55 AM CDT 9:31 PM CDT
Astronomical Twilight 4:16 AM CDT 10:11 PM CDT
Moon 4:55 PM CDT (6/9) 3:19 AM CDT (6/9)
Length of Visible Light 15h 23m
Length of Day
14h 25m
Waxing Gibbous, 85% of the Moon is Illuminated
Jun 9
Waxing Gibbous
Jun 12
Full
Jun 19
Last Quarter
Jun 27
New
Jul 5
First Quarter

Hourly Weather History & Observations

Time (CDT) Temp. Dew Point Humidity Pressure Visibility Wind Dir Wind Speed Gust Speed Precip Events Conditions
12:10 AM 68.0 °F 66.0 °F 93% 29.87 in 10.0 mi Calm Calm - N/A   Overcast
12:53 AM 66.9 °F 66.0 °F 97% 29.85 in 10.0 mi Calm Calm - N/A   Overcast
1:53 AM 66.9 °F 66.0 °F 97% 29.82 in 10.0 mi Calm Calm - N/A   Overcast
2:32 AM 66.9 °F 66.0 °F 97% 29.81 in 6.0 mi Calm Calm - 0.05 in Rain Light Rain
2:53 AM 66.9 °F 66.0 °F 97% 29.79 in 10.0 mi Calm Calm - 0.05 in Rain Light Rain
3:53 AM 66.9 °F 66.0 °F 97% 29.78 in 9.0 mi Calm Calm - 0.00 in   Overcast
4:53 AM 66.9 °F 66.0 °F 97% 29.80 in 10.0 mi ESE 3.5 mph - 0.06 in Rain Light Rain
5:05 AM 66.9 °F 66.0 °F 97% 29.83 in 10.0 mi SE 4.6 mph - 0.00 in   Scattered Clouds
5:53 AM 66.9 °F 66.0 °F 97% 29.76 in 6.0 mi ESE 9.2 mph - 0.02 in Rain Rain
6:01 AM 66.9 °F 66.0 °F 97% 29.77 in 6.0 mi ESE 6.9 mph - 0.03 in Rain Light Rain
6:28 AM 66.9 °F 66.0 °F 97% 29.76 in 10.0 mi SSE 8.1 mph - 0.06 in Rain Light Rain
6:53 AM 68.0 °F 66.0 °F 93% 29.74 in 5.0 mi Calm Calm - 0.06 in   Scattered Clouds
7:53 AM 68.0 °F 66.9 °F 96% 29.77 in 10.0 mi Calm Calm - 0.00 in Rain Light Rain
8:53 AM 69.1 °F 68.0 °F 96% 29.78 in 10.0 mi Calm Calm - 0.00 in Rain Light Rain
9:06 AM 69.1 °F 68.0 °F 96% 29.79 in 7.0 mi Variable 3.5 mph - 0.02 in Rain Light Rain
9:39 AM 69.1 °F 68.0 °F 96% 29.80 in 1.8 mi Calm Calm - 0.05 in Rain Rain
9:49 AM 69.8 °F 68.0 °F 94% 29.79 in 3.0 mi Calm Calm - 0.09 in Rain Light Rain
9:53 AM 69.1 °F 68.0 °F 96% 29.77 in 6.0 mi Calm Calm - 0.09 in Rain Light Rain
10:09 AM 69.1 °F 68.0 °F 96% 29.80 in 2.0 mi Calm Calm - 0.03 in Rain Rain
10:16 AM 69.1 °F 68.0 °F 96% 29.79 in 3.0 mi Calm Calm - 0.04 in Rain Rain
10:27 AM 69.1 °F 68.0 °F 96% 29.80 in 1.8 mi Calm Calm - 0.08 in Rain Heavy Rain
10:46 AM 69.1 °F 68.0 °F 96% 29.79 in 0.5 mi NNE 3.5 mph - 0.27 in Fog , Rain Heavy Rain
10:53 AM 68.0 °F 66.9 °F 96% 29.79 in 0.5 mi West 4.6 mph - 0.44 in Fog , Rain Heavy Rain
11:04 AM 68.0 °F 66.9 °F 96% 29.79 in 0.2 mi Calm Calm - 0.33 in Fog , Rain Heavy Rain
11:10 AM 68.0 °F 66.9 °F 96% 29.78 in 1.0 mi East 4.6 mph - 0.38 in Rain Heavy Rain
11:21 AM 68.0 °F 66.9 °F 96% 29.78 in 2.0 mi ESE 5.8 mph - 0.43 in Rain Rain
11:44 AM 68.0 °F 66.9 °F 96% 29.78 in 4.0 mi SE 9.2 mph - 0.53 in Rain Light Rain
11:53 AM 68.0 °F 66.9 °F 96% 29.75 in 5.0 mi ESE 5.8 mph - 0.54 in Rain Rain
12:29 PM 69.1 °F 68.0 °F 96% 29.74 in 10.0 mi Variable 4.6 mph - 0.02 in   Overcast
12:53 PM 70.0 °F 68.0 °F 93% 29.69 in 10.0 mi Variable 3.5 mph - 0.02 in   Mostly Cloudy
1:03 PM 70.0 °F 68.0 °F 93% 29.70 in 10.0 mi SE 6.9 mph - N/A   Mostly Cloudy
1:53 PM 71.1 °F 66.9 °F 87% 29.67 in 10.0 mi SE 6.9 mph - N/A   Clear
2:53 PM 73.0 °F 66.9 °F 81% 29.67 in 10.0 mi North - - N/A   Scattered Clouds
3:13 PM 73.0 °F 66.9 °F 81% 29.70 in 10.0 mi Variable 5.8 mph - N/A   Mostly Cloudy
3:53 PM 73.9 °F 66.9 °F 79% 29.67 in 10.0 mi Variable 3.5 mph - N/A   Overcast
4:08 PM 73.9 °F 66.0 °F 76% 29.70 in 10.0 mi Variable 6.9 mph - N/A   Overcast
4:53 PM 73.9 °F 66.9 °F 79% 29.69 in 10.0 mi North - - N/A   Overcast
5:53 PM 73.9 °F 66.0 °F 76% 29.69 in 10.0 mi Variable 3.5 mph - N/A   Mostly Cloudy
6:53 PM 73.9 °F 66.9 °F 79% 29.70 in 10.0 mi Calm Calm - N/A   Overcast
7:53 PM 72.0 °F 66.0 °F 81% 29.69 in 10.0 mi Variable 3.5 mph - N/A   Scattered Clouds
8:53 PM 70.0 °F 64.9 °F 84% 29.69 in 10.0 mi Calm Calm - N/A   Clear
9:53 PM 69.1 °F 64.9 °F 87% 29.70 in 10.0 mi Calm Calm - N/A   Clear
10:53 PM 69.1 °F 64.0 °F 84% 29.70 in 10.0 mi SSW 5.8 mph - N/A   Clear
11:53 PM 68.0 °F 64.0 °F 87% 29.71 in 10.0 mi Calm Calm - N/A   Clear